Hourly Data Report for May 13, 2021

WESTERN HEAD
NOVA SCOTIA
Current Station Operator: ECCC - MSC

43°59'24.070" N
64°39'51.008" W
10.10 m
8206240
71411
WWE

Download Data

Hourly Data (May 2021)
Hourly Data Report for May 13, 2021
TIME
LST
Temp Definition
°C
Dew Point Definition
°C
Rel Hum Definition
%
Precip. Amount Definition
mm

Wind Dir Definition
10's deg

Wind Spd Definition
km/h
Visibility Definition
km
Stn Press Definition
kPa
Hmdx Definition


Wind Chill Definition


Weather Definition


00:00 5.7 5.0 95 0.0 29 10   101.65     LegendNANA
01:00 6.5 5.3 92 0.0 28 8   101.64     LegendNANA
02:00 6.7 4.9 88 0.0 29 13   101.61     LegendNANA
03:00 5.3 4.4 94 0.0 30 11   101.60     LegendNANA
04:00 5.1 4.4 96 0.0 30 11   101.60     LegendNANA
05:00 5.0 4.4 96 0.0 30 12   101.61     LegendNANA
06:00 6.2 5.4 95 0.0 30 11   101.64     LegendNANA
07:00 9.7 5.4 75 0.0 30 12   101.66     LegendNANA
08:00 12.8 4.9 59 0.0 30 13   101.66     LegendNANA
09:00 14.5 3.2 46 0.0 31 15   101.64     LegendNANA
10:00 15.7 2.3 40 0.0 31 17   101.62     LegendNANA
11:00 17.1 1.6 35 0.0 34 16   101.60     LegendNANA
12:00 16.5 -0.6 31 0.0 32 15   101.57     LegendNANA
13:00 17.9 -0.5 29 0.0 29 15   101.54     LegendNANA
14:00 17.3 -1.1 29 0.0 29 15   101.50     LegendNANA
15:00 18.2 -2.5 24 0.0 30 14   101.44     LegendNANA
16:00 17.6 -1.1 28 0.0 30 10   101.41     LegendNANA
17:00 17.5 -0.4 30 0.0 29 10   101.40     LegendNANA
18:00 17.5 -1.0 28 0.0 28 18   101.39     LegendNANA
19:00 15.4 0.3 36 0.0 27 20   101.43     LegendNANA
20:00 12.1 0.5 45 0.0 25 13   101.49     LegendNANA
21:00 10.8 0.4 49 0.0 26 13   101.56     LegendNANA
22:00 8.0 4.0 76 0.0 22 10   101.54     LegendNANA
23:00 9.0 2.2 62 0.0 25 11   101.51     LegendNANA

Notes on Data Quality.

Legend

  • E = Estimated
  • M = Missing
  • NA = Not Available*
  • [empty] = Indicates an unobserved value
Date modified: